CAPELLA-18 (ACADIA)

导读

CAPELLA-18 (ACADIA)是卡佩拉航天新一代合成孔径雷达成像卫星,计划于2026年1月11日发射,具体归属国家暂未公布。该卫星属于卡佩拉航天Acadia系列商业遥感卫星,依托高分辨率SAR技术,可不受天气、光照影响全天时全天候对地观测,服务于灾害监测、资源勘探、国防安全等领域,将进一步扩充卡佩拉的全球遥感卫星星座网络。

基本信息
目录编号:
67385
目录名称:
CAPELLA-18 (ACADIA)
国际标识:
2026-004Y
轨道中心:
EARTH
卫星名称:
CAPELLA-18 (ACADIA)
卫星全名:
CAPELLA-18 (ACADIA)
卫星状态:
在轨 (已飞行237 天)
发射日期:
2026-01-11 UTC
国别 :
美国 (US)
星等 :
--
轨道信息
数据来源 国际轨道数据 AOE轨道数据
星历时间 2026-09-04T18:18:12+0800
1天前
查看轨道信息
2026-09-04T11:00:00+0800
1天前
查看轨道信息
半长轴 6986.573km 6986.525km
偏心率 0.0001465 0.0000159
轨道倾角 97.806° 97.813°
近地点辐角 94.435° 62.800°
升交点赤经 244.540° 244.237°
平近点角 265.704° 109.729°
近地点 607.412km 608.276km
远地点 609.46km 608.5km
周期 96.863分钟 96.862分钟
每日圈数 14.866425 14.866576
详细信息
使用方式:
暂无
2D轨道图
3D轨道图
轨道高度分析图
轨道倾角分析图
轨道综合分析图
查看轨道综合分析图